Location: Newark
(50.8547°N, 2.7256°E)
Time: 11:21:17
(UTC+00:00)

Envisat - Pass Details

Date: 01 February 2020
Orbit: 764 x 766 km, 98.1° (Epoch: 25 February)

Event Time Altitude Azimuth Distance (km) Brightness Sun altitude
Rises 05:10:32 0° 27° (NNE) 3,244 6.6 -21.5°
Reaches altitude 10° 05:13:47 10° 49° (NE) 2,312 6.1 -20.9°
Maximum altitude 05:16:53 16° 87° (E) 1,914 6.1 -20.4°
Drops below altitude 10° 05:19:59 10° 125° (SE) 2,300 6.3 -20.0°
Sets 05:23:11 0° 146° (SSE) 3,220 6.8 -19.5°
